User: anonymous   Login
Location: Wawayanda State Park
(41.1833°N, 74.4333°W)
Time: 19:33:20
(UTC-04:00)
Language:

Landsat 7 - Orbit

View from above orbital plane
View from above orbital plane
View from above satellite
View from above satellite

Ground track
Ground track

The orbit data is extracted from the following two-line orbital elements,

1 25682U 99020A   15108.46252209  .00000634  00000-0  15083-3 0  9991
2 25682 098.2219 179.1519 0000679 086.6749 273.4531 14.57111154851448
Epoch (UTC): 18 April 2015 11:06:01
Eccentricity: 0.0000679
inclination: 98.2219°
perigee height: 702 km
apogee height: 703 km
right ascension of ascending node: 179.1519°
argument of perigee: 86.6749°
revolutions per day: 14.57111154
mean anomaly at epoch: 273.4531°
orbit number at epoch: 85144

The dashed part of the orbit path shows where the satellite is in the earth's shadow,  

DLR